[[{"header":{"parameterUnit":"m.s-1","parameterCategory":1,"la1":30.2991,"la2":30.254,"lo1":-89.0895,"lo2":-89.0444,"dy":0.0017,"dx":0.0017,"nx":28,"ny":28,"refTime":"2025-07-03T03:00:00:Z","depth":0,"parameterNumber":2,"parameterNumberName":"U-component_of_WINDS"},"data":[0,0,0,0,0,0,0,0,0,0,0,0,0,0,0,0,0,0,0,0,0,0,0,0,0,0,0,0,0,0,0,0,0,0,0,0,0,0,0,0,0,0,0,0,0,0,0,0,0,0,0,0,0,0,0,0,0,0,1.752,1.752,0,1.7485,1.7485,1.7485,1.744,1.7439,1.7438,1.7438,1.7406,1.7406,1.7406,0,0,0,0,0,0,0,0,0,0,0,0,0,1.7551,1.7551,1.752,1.752,1.7519,1.7485,1.7485,1.7484,1.744,1.7439,1.7438,1.7437,1.7406,1.7406,1.7406,0,0,0,0,0,0,0,0,0,0,0,0,0,1.7529,1.7551,1.752,1.7493,1.749,1.7485,1.7485,1.7484,1.744,1.7439,1.7438,1.7437,1.7406,1.7406,1.7406,1.7427,0,0,1.7405,1.7405,0,0,0,0,0,0,0,0,1.7531,1.7528,1.7497,1.7495,1.7491,1.7466,1.7484,1.7465,1.744,1.7459,1.7438,1.7436,1.7427,1.7425,1.7421,1.7425,1.7424,1.7405,1.7405,1.7405,1.7405,0,0,0,0,0,0,0,1.7532,1.7529,1.7506,1.7497,1.7493,1.7483,1.7479,1.748,1.745,1.7457,1.7454,1.745,1.7425,1.7421,1.742,1.7423,1.7405,1.7405,1.7405,1.7405,1.7444,1.7445,0,0,0,0,0,0,1.7537,1.7531,1.7507,1.7505,1.7509,1.7484,1.7479,1.7475,1.745,1.7445,1.7451,1.7448,1.7422,1.742,1.7419,1.7443,1.7405,1.7405,1.7404,1.7443,1.7444,1.7446,0,0,0,0,0,0,1.7538,1.7536,1.7509,1.7517,1.7513,1.7484,1.7481,1.7475,1.7471,1.7445,1.744,1.7453,1.7421,1.7419,1.7425,1.7442,1.7404,1.7404,1.7441,1.7443,1.7445,1.7491,0,0,0,0,0,0,1.7539,1.7536,1.7543,1.7518,1.7513,1.7515,1.7481,1.7475,1.747,1.7466,1.7445,1.7441,1.742,1.7426,1.7425,1.7441,1.7404,1.744,1.7442,1.7444,1.7488,1.7495,1.75,0,0,0,0,0,1.754,1.7558,1.7544,1.7541,1.7521,1.7516,1.7513,1.7489,1.7472,1.7479,1.7463,1.7441,1.7439,1.7427,1.7425,1.7441,1.7439,1.7442,1.7444,1.7486,1.7493,1.75,0,0,0,0,0,0,1.7588,1.7554,1.7538,1.7548,1.7535,1.7508,1.7517,1.7497,1.749,1.7487,1.7457,1.7453,1.7463,1.7452,1.7439,1.7461,1.7436,1.7438,1.7468,1.7475,1.7481,1.7485,1.7404,0,0,0,0,0,1.7599,1.7597,1.7568,1.7579,1.7573,1.7546,1.7543,1.7525,1.7511,1.7506,1.749,1.7478,1.7475,1.7474,1.7469,1.7485,1.7482,1.7496,1.7501,1.7506,1.751,1.752,1.7527,1.7454,1.7454,1.7454,0,0,1.7623,1.7604,1.7605,1.7588,1.7576,1.7576,1.7542,1.7543,1.7544,1.7507,1.7512,1.7499,1.7484,1.7496,1.75,1.7487,1.7528,1.751,1.7514,1.7515,1.7523,1.753,1.7536,1.7456,1.7456,1.7456,0,0,1.7667,1.7652,1.7661,1.7649,1.763,1.7612,1.7614,1.759,1.758,1.7584,1.7557,1.7557,1.7551,1.7542,1.7537,1.7577,1.7558,1.7576,1.7608,1.7617,1.7623,1.7628,1.7645,1.7651,1.7579,1.7579,1.7579,0,1.77,1.7698,1.7668,1.7671,1.7665,1.7629,1.7639,1.7629,1.7611,1.7609,1.7593,1.7586,1.7574,1.7584,1.7593,1.7589,1.7593,1.758,1.7624,1.7629,1.7633,1.7649,1.7655,1.7582,1.7581,1.7581,1.7581,0,1.774,1.7739,1.7748,1.7731,1.7725,1.7732,1.7704,1.7702,1.7684,1.7668,1.7673,1.7656,1.7648,1.7648,1.7631,1.7656,1.7649,1.7629,1.7605,1.7643,1.7658,1.7664,1.7585,1.7584,1.7584,1.7583,0,0,1.7817,1.7781,1.7785,1.7777,1.7754,1.7753,1.7757,1.7748,1.7749,1.7737,1.7742,1.7737,1.7719,1.7713,1.7694,1.7702,1.7738,1.7681,1.7681,1.7695,1.7768,1.7785,1.7793,1.7723,1.7724,1.7725,1.777,0,1.786,1.7865,1.7838,1.7852,1.7851,1.7816,1.7821,1.7808,1.7792,1.779,1.7773,1.7772,1.7746,1.7742,1.7748,1.7732,1.7752,1.7728,1.773,1.7731,1.7739,1.78,1.7818,1.7862,1.7775,1.7776,1.7777,0,1.7911,1.7901,1.7914,1.789,1.7889,1.7893,1.7883,1.7881,1.7865,1.7853,1.7846,1.7824,1.7828,1.7801,1.7809,1.7793,1.7791,1.7783,1.7784,1.7787,1.7759,1.7807,1.7875,1.7883,1.7785,1.7784,1.7783,0,1.797,1.7959,1.7966,1.7959,1.7931,1.7935,1.7923,1.7906,1.7903,1.7894,1.7892,1.7883,1.788,1.7875,1.7851,1.7834,1.7862,1.7833,1.7855,1.7856,1.7866,1.7866,1.7938,1.7859,1.7859,1.7859,1.7859,0,1.8023,1.8033,1.7992,1.7997,1.8008,1.7975,1.7988,1.7973,1.7958,1.796,1.7928,1.7932,1.7898,1.7898,1.7879,1.789,1.7887,1.788,1.7875,1.7885,1.7886,1.7887,1.7885,1.786,1.786,1.786,1.7859,0,1.8092,1.8064,1.807,1.8041,1.8034,1.8044,1.8021,1.8025,1.8005,1.8009,1.8008,1.7979,1.7978,1.7952,1.7945,1.7932,1.7952,1.7939,1.7957,1.7955,1.7979,1.7979,1.8057,1.8067,1.7978,1.7979,1.7979,0,1.813,1.8137,1.8108,1.8107,1.8097,1.8095,1.8091,1.8059,1.8056,1.8038,1.8045,1.804,1.8035,1.8034,1.8013,1.8008,1.7998,1.8025,1.7997,1.8007,1.8003,1.8004,1.8006,1.8033,1.8034,1.8035,1.8036,0,1.8201,1.8186,1.8181,1.8171,1.8166,1.8157,1.8146,1.8147,1.8112,1.811,1.8107,1.8103,1.8095,1.8092,1.8082,1.8071,1.8049,1.8044,1.8049,1.8061,1.8073,1.807,1.7977,1.8043,1.8043,1.8042,1.8042,1.8041,1.8258,1.8263,1.8244,1.8239,1.8227,1.8217,1.822,1.82,1.8197,1.8187,1.8168,1.8169,1.8153,1.8138,1.8129,1.813,1.8116,1.8123,1.8126,1.8129,1.8135,1.8069,1.8127,1.8127,1.8127,1.8127,1.8126,0,1.8331,1.8316,1.8311,1.8296,1.8293,1.8268,1.8254,1.8254,1.8254,1.824,1.8235,1.8232,1.8228,1.8207,1.8201,1.8206,1.8196,1.8206,1.8207,1.8206,1.8146,1.8144,1.8214,1.8214,1.8214,1.8214,1.8214,1.8214,1.8369,1.8377,1.836,1.8362,1.8347,1.8347,1.8341,1.8332,1.8321,1.8319,1.8315,1.83,1.8283,1.8276,1.8272,1.8265,1.8267,1.8281,1.8272,1.8218,1.821,1.8202,1.82,1.8281,1.8281,1.8332,1.8333,1.8333]},{"header":{"parameterUnit":"m.s-1","parameterCategory":1,"la1":30.2991,"la2":30.254,"lo1":-89.0895,"lo2":-89.0444,"dy":0.0017,"dx":0.0017,"nx":28,"ny":28,"refTime":"2025-07-03T03:00:00:Z","depth":0,"parameterNumber":3,"parameterNumberName":"V-component_of_WINDS"},"data":[0,0,0,0,0,0,0,0,0,0,0,0,0,0,0,0,0,0,0,0,0,0,0,0,0,0,0,0,0,0,0,0,0,0,0,0,0,0,0,0,0,0,0,0,0,0,0,0,0,0,0,0,0,0,0,0,0,0,0.9379,0.9382,0,0.9685,0.9689,0.9692,0.9729,0.9726,0.9723,0.972,1.0034,1.0045,1.0056,0,0,0,0,0,0,0,0,0,0,0,0,0,0.8823,0.8833,0.9378,0.9382,0.9386,0.9684,0.9689,0.9693,0.973,0.9726,0.9722,0.9719,1.003,1.0044,1.0057,0,0,0,0,0,0,0,0,0,0,0,0,0,0.909,0.8836,0.9378,0.944,0.9449,0.9684,0.9689,0.9694,0.973,0.9726,0.9721,0.9717,1.0026,1.0042,1.0059,1.0252,0,0,1.011,1.0117,0,0,0,0,0,0,0,0,0.9075,0.911,0.9427,0.9436,0.9447,0.9664,0.9608,0.9881,0.9732,0.9624,0.972,0.9715,0.9915,0.994,1.0008,1.0267,1.028,1.0111,1.0122,1.0129,1.0133,0,0,0,0,0,0,0,0.9056,0.9097,0.95,0.9432,0.9444,0.9452,0.9485,0.966,0.9791,0.9633,0.9636,0.9672,0.9919,0.9991,1.0015,1.0285,1.0111,1.0126,1.0136,1.0143,1.0714,1.0718,0,0,0,0,0,0,0.9026,0.9082,0.949,0.9509,0.9246,0.9466,0.9503,0.9599,0.9789,0.9813,0.9675,0.9672,0.9965,0.9996,1.0026,1.0263,1.0129,1.0144,1.0154,1.0709,1.0715,1.072,0,0,0,0,0,0,0.9014,0.9062,0.9478,0.9296,0.935,0.948,0.9588,0.9607,0.968,0.9821,0.9844,0.9725,0.9963,1.0003,1.0195,1.0274,1.0152,1.0167,1.0702,1.071,1.0718,1.0738,0,0,0,0,0,0,0.8998,0.9058,0.9134,0.9298,0.9359,0.9642,0.9593,0.9617,0.9709,0.9708,0.9874,0.9898,0.9962,1.017,1.0211,1.0295,1.018,1.0696,1.0706,1.0715,1.0731,1.0745,1.0758,0,0,0,0,0,0.8978,0.9128,0.9137,0.9186,0.9457,0.9646,0.9682,0.9753,0.9715,0.9791,0.9881,0.9892,1.0259,1.0189,1.0236,1.0326,1.0691,1.0703,1.0714,1.0725,1.0742,1.0757,0,0,0,0,0,0,0.8971,0.9151,0.9163,0.9371,0.9493,0.9652,0.9751,0.977,0.9906,0.99,0.9982,1.0019,1.0207,1.0286,1.0205,1.0521,1.0471,1.0493,1.0463,1.0481,1.0494,1.0471,1.0194,0,0,0,0,0,0.8993,0.9132,0.9282,0.9451,0.9511,0.962,0.9706,0.975,0.988,0.9932,1.0036,1.0161,1.0304,1.0397,1.0537,1.0742,1.0777,1.0827,1.084,1.0851,1.0868,1.0979,1.1002,1.0758,1.0758,1.0758,0,0,0.9041,0.9157,0.924,0.9452,0.9552,0.9693,0.9664,0.9816,0.992,0.9955,1.0142,1.0222,1.0367,1.0565,1.0658,1.0637,1.0943,1.0865,1.0873,1.0885,1.0993,1.1016,1.1036,1.0766,1.0765,1.0763,0,0,0.9201,0.9303,0.9453,0.9553,0.9704,0.9775,0.981,0.9967,1.0021,1.021,1.0237,1.0363,1.0609,1.071,1.0793,1.0986,1.1,1.1029,1.11,1.1207,1.1226,1.1243,1.1309,1.1332,1.1046,1.1046,1.1046,0,0.9241,0.9456,0.9528,0.9678,0.9769,0.9805,0.9956,1.005,1.0239,1.03,1.0274,1.058,1.068,1.0901,1.0947,1.1015,1.1056,1.1011,1.1217,1.1236,1.1253,1.1317,1.1342,1.1049,1.1048,1.1048,1.1048,0,0.9497,0.9645,0.9748,0.9927,1.003,1.018,1.0274,1.0369,1.0403,1.0476,1.0665,1.0787,1.0949,1.1005,1.1041,1.123,1.1212,1.1201,1.1152,1.1277,1.1338,1.1364,1.1052,1.1051,1.1051,1.105,0,0,0.9662,0.9877,0.9914,0.9994,1.0162,1.0277,1.0427,1.0586,1.0664,1.0792,1.0919,1.1123,1.1113,1.1207,1.1254,1.1348,1.1489,1.1325,1.1329,1.1349,1.1701,1.1708,1.1735,1.1499,1.1504,1.1508,1.1688,0,0.9839,1.0108,1.0175,1.0404,1.0539,1.0574,1.0704,1.082,1.0891,1.1016,1.1094,1.1237,1.1214,1.127,1.1365,1.1452,1.156,1.144,1.1616,1.1621,1.1577,1.1768,1.1776,1.194,1.1713,1.1717,1.172,0,1.0083,1.0214,1.0455,1.0601,1.0661,1.0777,1.0925,1.1045,1.1175,1.122,1.1324,1.1361,1.1516,1.1459,1.1672,1.1588,1.1664,1.1717,1.1725,1.1744,1.1677,1.1789,1.1995,1.2019,1.1759,1.1756,1.1753,0,1.0175,1.0413,1.0587,1.0655,1.0831,1.0911,1.0988,1.1114,1.1204,1.1333,1.1392,1.1538,1.1618,1.1729,1.1803,1.1756,1.201,1.196,1.2049,1.2047,1.2101,1.2097,1.232,1.2152,1.2152,1.2151,1.2151,0,1.0366,1.0511,1.0631,1.0738,1.0901,1.0977,1.1136,1.1213,1.1324,1.1446,1.1485,1.1597,1.1689,1.1814,1.1873,1.2038,1.2075,1.2114,1.2128,1.211,1.2105,1.216,1.215,1.2158,1.2157,1.2155,1.2154,0,1.0498,1.0584,1.0776,1.0925,1.0966,1.1079,1.1206,1.1311,1.1381,1.1534,1.1574,1.1686,1.1834,1.1919,1.2107,1.2146,1.2329,1.2338,1.2285,1.2291,1.2375,1.2365,1.2641,1.2679,1.2487,1.2488,1.249,0,1.0613,1.0725,1.0886,1.0969,1.1047,1.1182,1.1273,1.135,1.1443,1.1598,1.1683,1.1833,1.1957,1.2192,1.2289,1.2431,1.2443,1.253,1.2465,1.2442,1.2442,1.2433,1.2444,1.2541,1.2542,1.2544,1.2545,0,1.0807,1.0843,1.0973,1.1117,1.1224,1.1341,1.1458,1.1524,1.162,1.1722,1.1873,1.197,1.2159,1.2307,1.2456,1.2534,1.2555,1.2564,1.2592,1.2575,1.2538,1.2556,1.2313,1.2558,1.2556,1.2556,1.2555,1.2554,1.0933,1.1033,1.116,1.1303,1.1398,1.1505,1.1609,1.1692,1.1819,1.1979,1.2017,1.2175,1.23,1.2502,1.2583,1.2707,1.2692,1.2733,1.2743,1.2751,1.2753,1.2519,1.2735,1.2735,1.2734,1.2734,1.2734,0,1.1127,1.121,1.134,1.15,1.1611,1.162,1.1749,1.184,1.198,1.2094,1.2214,1.2386,1.2529,1.2636,1.2781,1.2859,1.2872,1.2894,1.2889,1.2905,1.276,1.272,1.2881,1.2881,1.2881,1.2881,1.2881,1.2881,1.1241,1.141,1.146,1.1675,1.1757,1.1913,1.1985,1.2082,1.2173,1.2363,1.2482,1.255,1.2661,1.2813,1.2943,1.2971,1.3021,1.3042,1.3071,1.2932,1.2916,1.2901,1.2864,1.3053,1.3053,1.3206,1.3207,1.3208]}]]